Date String (YYYY-MM-DD hh:mm:ss) UTC,Instrument flags,Ambient pressure (hPa),Sample flow (lpm),Bypass flow (lpm),Sample temperature (°C),Ambient temperature (°C),ASC tube jacket temperature (°C),LED temperature (°C),Box temperature (°C),Sample RH (%),Span deviation,Mass concentration (μg/m³),Mass concentration (μg/m³),Mass concentration (μg/m³)
DateTimeUTC,F1_M11,P_M11,Q1_M11,Q2_M11,T1_M11,T2_M11,T3_M11,T4_M11,T5_M11,U1_M11,ZSPAN_M11,X0_M11,X2_M11,X1_M11
2022-06-10 06:00:00,,0828.5,5.00,0.00,29.4,28.6,00.0,38.2,31.3,26.0,0000.0,0016.79,0004.67,0002.54
2022-06-10 06:01:00,,0828.5,4.99,0.00,29.4,28.6,00.0,38.2,31.4,26.0,0000.0,0015.81,0004.64,0002.53
2022-06-10 06:02:00,,0828.5,5.01,0.00,29.4,28.4,00.0,38.2,31.3,26.0,0000.0,0016.25,0004.61,0002.50
2022-06-10 06:03:00,,0828.5,5.01,0.00,29.4,27.6,00.0,38.1,31.1,26.1,0000.0,0017.60,0004.57,0002.49
2022-06-10 06:04:00,,0828.5,4.99,0.00,29.3,27.2,00.0,38.1,31.0,26.1,0000.0,0017.59,0004.57,0002.50
2022-06-10 06:05:00,,0828.5,5.02,0.00,29.2,27.1,00.0,38.1,30.8,26.3,0000.0,0018.19,0004.58,0002.51
2022-06-10 06:06:00,,0828.5,4.99,0.00,29.1,27.1,00.0,38.1,30.8,26.4,0000.0,0019.03,0004.58,0002.53
2022-06-10 06:07:00,,0828.5,5.00,0.00,29.1,27.2,00.0,38.1,30.8,26.4,0000.0,0019.42,0004.58,0002.55
2022-06-10 06:08:00,,0828.5,5.01,0.00,29.1,27.3,00.0,38.1,30.8,26.5,0000.0,0020.02,0004.66,0002.58
2022-06-10 06:09:00,,0828.5,5.01,0.00,29.1,27.5,00.0,38.0,30.9,26.4,0000.0,0019.36,0004.65,0002.60
2022-06-10 06:10:00,,0828.5,4.99,0.00,29.1,27.6,00.0,38.0,30.9,26.4,0000.0,0018.67,0004.64,0002.61
2022-06-10 06:11:00,,0828.5,5.00,0.00,29.1,27.7,00.0,38.0,30.9,26.5,0000.0,0019.40,0004.66,0002.61
2022-06-10 06:12:00,,0828.5,5.01,0.00,29.1,27.8,00.0,38.0,31.0,26.4,0000.0,0019.78,0004.62,0002.61
2022-06-10 06:13:00,,0828.5,5.00,0.00,29.1,27.9,00.0,38.0,31.0,26.3,0000.0,0018.93,0004.66,0002.61
2022-06-10 06:14:00,,0828.5,5.00,0.00,29.1,28.0,00.0,38.0,31.0,26.3,0000.0,0017.26,0004.64,0002.61
2022-06-10 06:15:00,,0828.5,5.00,0.00,29.1,28.0,00.0,38.0,31.0,26.3,0000.0,0016.70,0004.64,0002.62
2022-06-10 06:16:00,,0828.5,5.01,0.00,29.1,28.1,00.0,38.0,31.0,26.3,0000.0,0016.31,0004.59,0002.62
2022-06-10 06:17:00,,0828.5,5.02,0.00,29.1,28.2,00.0,38.0,31.1,26.3,0000.0,0015.57,0004.60,0002.60
2022-06-10 06:18:00,,0828.4,5.00,0.00,29.2,28.2,00.0,38.0,31.1,26.2,0000.0,0014.93,0004.58,0002.60
2022-06-10 06:19:00,,0828.5,5.00,0.00,29.2,28.3,00.0,38.1,31.1,26.2,0000.0,0014.10,0004.56,0002.60
2022-06-10 06:20:00,,0828.9,5.01,0.00,29.2,28.3,00.0,38.1,31.1,26.1,0000.0,0014.84,0004.59,0002.59
2022-06-10 06:21:00,,0828.7,5.00,0.00,29.2,28.3,00.0,38.1,31.2,26.1,0000.0,0016.31,0004.62,0002.60
2022-06-10 06:22:00,,0828.7,5.00,0.00,29.3,28.4,00.0,38.1,31.2,26.0,0000.0,0016.67,0004.65,0002.63
2022-06-10 06:23:00,,0828.5,4.99,0.00,29.3,28.4,00.0,38.1,31.2,25.9,0000.0,0016.79,0004.69,0002.63
2022-06-10 06:24:00,,0828.5,5.02,0.00,29.3,28.4,00.0,38.1,31.2,25.9,0000.0,0016.52,0004.66,0002.65
2022-06-10 06:25:00,,0828.4,5.00,0.00,29.3,28.5,00.0,38.1,31.3,25.9,0000.0,0017.56,0004.71,0002.65
2022-06-10 06:26:00,,0828.6,5.00,0.00,29.3,28.5,00.0,38.2,31.3,25.8,0000.0,0018.34,0004.74,0002.63
2022-06-10 06:27:00,,0828.5,5.00,0.00,29.4,28.5,00.0,38.2,31.3,25.8,0000.0,0018.64,0004.72,0002.61
2022-06-10 06:28:00,,0828.5,5.00,0.00,29.4,28.5,00.0,38.2,31.3,25.7,0000.0,0018.66,0004.66,0002.60
2022-06-10 06:29:00,,0828.4,4.99,0.00,29.4,28.6,00.0,38.2,31.3,25.7,0000.0,0018.95,0004.70,0002.61
2022-06-10 06:30:00,,0828.5,5.00,0.00,29.4,28.6,00.0,38.2,31.3,25.6,0000.0,0018.91,0004.66,0002.61
2022-06-10 06:31:00,,0828.4,5.01,0.00,29.4,28.6,00.0,38.2,31.4,25.6,0000.0,0019.06,0004.63,0002.62
2022-06-10 06:32:00,,0828.4,5.00,0.00,29.4,28.6,00.0,38.3,31.4,25.6,0000.0,0018.79,0004.54,0002.61
2022-06-10 06:33:00,,0828.4,4.99,0.00,29.5,28.7,00.0,38.3,31.4,25.5,0000.0,0017.87,0004.47,0002.60
2022-06-10 06:34:00,,0828.3,5.00,0.00,29.5,28.7,00.0,38.3,31.4,25.5,0000.0,0017.14,0004.50,0002.60
2022-06-10 06:35:00,,0828.3,5.00,0.00,29.5,28.7,00.0,38.3,31.4,25.4,0000.0,0017.10,0004.55,0002.60
2022-06-10 06:36:00,,0828.3,5.00,0.00,29.5,28.7,00.0,38.3,31.5,25.4,0000.0,0017.97,0004.54,0002.59
2022-06-10 06:37:00,,0828.3,5.01,0.00,29.5,28.7,00.0,38.4,31.5,25.3,0000.0,0017.81,0004.53,0002.60
2022-06-10 06:38:00,,0828.3,5.01,0.00,29.6,28.8,00.0,38.4,31.5,25.3,0000.0,0018.17,0004.56,0002.61
2022-06-10 06:39:00,,0828.2,5.00,0.00,29.6,28.8,00.0,38.4,31.5,25.3,0000.0,0018.38,0004.57,0002.61
2022-06-10 06:40:00,,0828.2,4.99,0.00,29.6,28.5,00.0,38.4,31.5,25.3,0000.0,0018.85,0004.60,0002.61
2022-06-10 06:41:00,,0828.2,4.99,0.00,29.5,27.6,00.0,38.3,31.2,25.4,0000.0,0018.85,0004.66,0002.61
2022-06-10 06:42:00,,0828.2,5.01,0.00,29.4,27.2,00.0,38.2,31.1,25.5,0000.0,0018.27,0004.62,0002.59
2022-06-10 06:43:00,,0828.2,4.99,0.00,29.3,27.1,00.0,38.2,31.0,25.6,0000.0,0016.85,0004.61,0002.61
2022-06-10 06:44:00,,0828.2,5.01,0.00,29.3,27.2,00.0,38.2,30.9,25.7,0000.0,0016.44,0004.68,0002.63
2022-06-10 06:45:00,,0828.2,4.99,0.00,29.2,27.3,00.0,38.2,30.9,26.0,0000.0,0016.73,0004.64,0002.62
2022-06-10 06:46:00,,0828.2,5.00,0.00,29.2,27.4,00.0,38.2,31.0,26.1,0000.0,0017.26,0004.61,0002.62
2022-06-10 06:47:00,,0828.2,5.01,0.00,29.2,27.5,00.0,38.2,31.0,26.0,0000.0,0016.36,0004.62,0002.64
2022-06-10 06:48:00,,0828.4,5.01,0.00,29.2,27.7,00.0,38.2,31.0,26.0,0000.0,0016.10,0004.61,0002.65
2022-06-10 06:49:00,,0828.2,5.00,0.00,29.2,27.8,00.0,38.2,31.0,26.1,0000.0,0015.26,0004.58,0002.67
2022-06-10 06:50:00,,0828.2,4.99,0.00,29.2,27.9,00.0,38.2,31.0,26.1,0000.0,0014.59,0004.59,0002.69
2022-06-10 06:51:00,,0828.3,5.00,0.00,29.2,28.0,00.0,38.2,31.1,26.0,0000.0,0013.96,0004.56,0002.71
2022-06-10 06:52:00,,0828.1,5.00,0.00,29.2,28.0,00.0,38.1,31.1,26.0,0000.0,0014.92,0004.51,0002.71
2022-06-10 06:53:00,,0828.3,5.00,0.00,29.2,28.1,00.0,38.1,31.1,26.0,0000.0,0015.16,0004.53,0002.73
2022-06-10 06:54:00,,0828.2,5.01,0.00,29.2,28.2,00.0,38.2,31.1,26.0,0000.0,0015.68,0004.58,0002.73
2022-06-10 06:55:00,,0828.2,5.00,0.00,29.2,28.2,00.0,38.2,31.2,26.0,0000.0,0017.20,0004.58,0002.74
2022-06-10 06:56:00,,0828.2,5.00,0.00,29.3,28.3,00.0,38.2,31.2,26.0,0000.0,0017.68,0004.61,0002.77
2022-06-10 06:57:00,,0828.2,5.00,0.00,29.3,28.3,00.0,38.2,31.2,26.1,0000.0,0017.40,0004.57,0002.81
2022-06-10 06:58:00,,0828.2,5.00,0.00,29.3,28.3,00.0,38.2,31.2,26.0,0000.0,0016.98,0004.53,0002.80
2022-06-10 06:59:00,,0828.2,5.00,0.00,29.3,28.4,00.0,38.2,31.2,25.9,0000.0,0017.55,0004.54,0002.81
